Location: Capvern
(43.1036°N, 0.3160°E)
Time: 23:11:53
(UTC+00:00)

Cosmos 2263 Rocket - Pass Details

Date: 16 October 2021
Orbit: 825 x 847 km, 71.0° (Epoch: 04 December)

Event Time Altitude Azimuth Distance (km) Brightness Sun altitude
Rises 19:02:52 0° 336° (NNW) 3,373 5.8 -20.6°
Reaches altitude 10° 19:05:19 10° 338° (NNW) 2,435 5.0 -21.0°
Maximum altitude 19:10:54 79° 64° (ENE) 845 2.0 -22.0°
Enters shadow 19:13:08 38° 146° (SE) 1,241 2.7 -22.4°
